• In Netherlands
  • List of Countries
  • For 7 days
  • Water Temperature
  • Satellite Maps
  • Weather Map
  • Weather Widgets
  • user-avatar
    Login

    Hourly Weather Townsville

    Today, 26 April, Wednesday

    Time Temperature Precipitation Wind Pressure Humidity
    00:00 +21°C° 0 mm 2 mps 754 mmHg 96%
    01:00 +21°C° 0 mm 2 mps 754 mmHg 96%
    02:00 +22°C° 0 mm 1 mps 754 mmHg 97%
    03:00 +21°C° 0 mm 1 mps 754 mmHg 97%
    04:00 +20°C° 0 mm 1 mps 753 mmHg 97%
    05:00 +21°C° 0 mm 1 mps 754 mmHg 97%
    06:00 +21°C° 0 mm 1 mps 754 mmHg 97%
    07:00 +22°C° 0 mm 1 mps 754 mmHg 97%
    08:00 +24°C° 0 mm 1 mps 754 mmHg 85%
    09:00 +27°C° 0 mm 1 mps 754 mmHg 74%
    10:00 +28°C° 0 mm 0 mps 754 mmHg 62%
    11:00 +31°C° 0 mm 1 mps 754 mmHg 57%
    12:00 +32°C° 0 mm 1 mps 753 mmHg 53%
    13:00 +34°C° 0 mm 2 mps 753 mmHg 48%
    14:00 +32°C° 0 mm 2 mps 752 mmHg 52%
    15:00 +31°C° 0 mm 2 mps 752 mmHg 56%
    16:00 +30°C° 0 mm 2 mps 751 mmHg 61%
    17:00 +28°C° 0 mm 2 mps 752 mmHg 71%
    18:00 +26°C° 0 mm 2 mps 752 mmHg 82%
    19:00 +24°C° 0 mm 2 mps 752 mmHg 92%
    20:00 +24°C° 0 mm 3 mps 752 mmHg 91%
    21:00 +24°C° 0 mm 3 mps 752 mmHg 91%
    22:00 +22°C° 0 mm 3 mps 752 mmHg 91%
    23:00 +22°C° 0 mm 3 mps 752 mmHg 92%

    Tomorrow, 27 April, Thursday

    Time Temperature Precipitation Wind Pressure Humidity
    00:00 +23°C° 0 mm 2 mps 752 mmHg 93%
    01:00 +23°C° 0 mm 2 mps 752 mmHg 94%
    02:00 +21°C° 0 mm 2 mps 752 mmHg 93%
    03:00 +21°C° 0 mm 2 mps 752 mmHg 91%
    04:00 +21°C° 0 mm 2 mps 752 mmHg 89%
    05:00 +21°C° 0 mm 2 mps 752 mmHg 84%
    06:00 +21°C° 0 mm 3 mps 753 mmHg 79%
    07:00 +21°C° 0 mm 3 mps 753 mmHg 73%
    08:00 +23°C° 0 mm 4 mps 753 mmHg 65%
    09:00 +26°C° 0 mm 4 mps 754 mmHg 57%
    10:00 +28°C° 0 mm 5 mps 754 mmHg 49%
    11:00 +29°C° 0 mm 4 mps 753 mmHg 46%
    12:00 +31°C° 0 mm 3 mps 753 mmHg 43%
    13:00 +32°C° 0 mm 2 mps 752 mmHg 40%
    14:00 +33°C° 0 mm 3 mps 752 mmHg 40%
    15:00 +33°C° 0 mm 3 mps 751 mmHg 40%
    16:00 +33°C° 0 mm 3 mps 751 mmHg 41%
    17:00 +29°C° 0.1 mm 3 mps 751 mmHg 52%
    18:00 +26°C° 0.1 mm 3 mps 752 mmHg 63%
    19:00 +24°C° 0.1 mm 3 mps 752 mmHg 74%
    20:00 +22°C° 0.2 mm 3 mps 753 mmHg 70%
    21:00 +22°C° 0.2 mm 3 mps 753 mmHg 66%
    22:00 +21°C° 0.2 mm 3 mps 754 mmHg 62%
    23:00 +20°C° 0 mm 4 mps 754 mmHg 57%

    Day after tomorrow, 28 April, Friday

    Time Temperature Precipitation Wind Pressure Humidity
    00:00 +19°C° 0 mm 4 mps 754 mmHg 52%
    01:00 +17°C° 0 mm 5 mps 754 mmHg 47%
    02:00 +17°C° 0 mm 5 mps 754 mmHg 45%
    03:00 +16°C° 0 mm 5 mps 754 mmHg 44%
    04:00 +16°C° 0 mm 6 mps 754 mmHg 42%
    05:00 +15°C° 0 mm 6 mps 754 mmHg 44%
    06:00 +15°C° 0 mm 6 mps 755 mmHg 46%
    07:00 +15°C° 0 mm 6 mps 756 mmHg 48%
    08:00 +17°C° 0 mm 6 mps 756 mmHg 45%
    09:00 +19°C° 0 mm 6 mps 756 mmHg 42%
    10:00 +21°C° 0 mm 5 mps 757 mmHg 39%
    11:00 +23°C° 0 mm 5 mps 756 mmHg 36%
    12:00 +26°C° 0 mm 4 mps 755 mmHg 33%
    13:00 +27°C° 0 mm 3 mps 755 mmHg 29%
    14:00 +27°C° 0 mm 3 mps 754 mmHg 29%
    15:00 +27°C° 0 mm 3 mps 754 mmHg 29%
    16:00 +27°C° 0 mm 3 mps 754 mmHg 29%
    17:00 +25°C° 0 mm 3 mps 754 mmHg 32%
    18:00 +22°C° 0 mm 3 mps 754 mmHg 35%
    19:00 +19°C° 0 mm 3 mps 755 mmHg 38%
    20:00 +19°C° 0 mm 3 mps 755 mmHg 39%
    21:00 +18°C° 0 mm 3 mps 756 mmHg 39%
    22:00 +17°C° 0 mm 4 mps 756 mmHg 40%
    23:00 +15°C° 0 mm 4 mps 756 mmHg 41%

    29 April, Saturday

    Time Temperature Precipitation Wind Pressure Humidity
    00:00 +15°C° 0 mm 4 mps 755 mmHg 42%
    01:00 +14°C° 0 mm 4 mps 755 mmHg 43%
    02:00 +14°C° 0 mm 4 mps 755 mmHg 44%
    03:00 +13°C° 0 mm 4 mps 755 mmHg 45%
    04:00 +13°C° 0 mm 4 mps 755 mmHg 45%
    05:00 +13°C° 0 mm 4 mps 755 mmHg 47%
    06:00 +13°C° 0 mm 4 mps 756 mmHg 49%
    07:00 +12°C° 0 mm 4 mps 756 mmHg 50%
    08:00 +15°C° 0 mm 4 mps 756 mmHg 44%
    09:00 +19°C° 0 mm 4 mps 756 mmHg 39%
    10:00 +22°C° 0 mm 4 mps 756 mmHg 33%
    11:00 +24°C° 0 mm 3 mps 756 mmHg 32%
    12:00 +26°C° 0 mm 3 mps 755 mmHg 31%
    13:00 +27°C° 0 mm 3 mps 754 mmHg 30%
    14:00 +27°C° 0 mm 3 mps 754 mmHg 34%
    15:00 +27°C° 0 mm 3 mps 754 mmHg 38%
    16:00 +27°C° 0 mm 3 mps 754 mmHg 41%
    17:00 +24°C° 0 mm 3 mps 754 mmHg 54%
    18:00 +21°C° 0 mm 3 mps 754 mmHg 67%
    19:00 +19°C° 0 mm 3 mps 755 mmHg 79%
    20:00 +18°C° 0 mm 3 mps 755 mmHg 84%
    21:00 +18°C° 0 mm 3 mps 756 mmHg 88%
    22:00 +18°C° 0 mm 3 mps 756 mmHg 92%
    23:00 +18°C° 0 mm 3 mps 756 mmHg 91%

    30 April, Sunday

    Time Temperature Precipitation Wind Pressure Humidity
    00:00 +18°C° 0 mm 4 mps 755 mmHg 91%
    01:00 +18°C° 0 mm 4 mps 755 mmHg 90%
    02:00 +18°C° 0 mm 4 mps 755 mmHg 90%
    03:00 +17°C° 0 mm 4 mps 754 mmHg 90%
    04:00 +17°C° 0 mm 4 mps 754 mmHg 91%
    05:00 +17°C° 0 mm 4 mps 754 mmHg 89%
    06:00 +17°C° 0 mm 4 mps 755 mmHg 87%
    07:00 +17°C° 0 mm 4 mps 755 mmHg 86%
    08:00 +20°C° 0 mm 5 mps 755 mmHg 77%
    09:00 +23°C° 0 mm 5 mps 755 mmHg 69%
    10:00 +26°C° 0 mm 5 mps 756 mmHg 61%
    11:00 +27°C° 0.1 mm 5 mps 755 mmHg 63%
    12:00 +27°C° 0.1 mm 6 mps 754 mmHg 65%
    13:00 +28°C° 0.1 mm 6 mps 753 mmHg 66%
    14:00 +28°C° 0.1 mm 6 mps 753 mmHg 67%
    15:00 +28°C° 0.1 mm 6 mps 753 mmHg 67%
    16:00 +27°C° 0.1 mm 6 mps 753 mmHg 67%
    17:00 +26°C° 0 mm 6 mps 753 mmHg 74%
    18:00 +23°C° 0 mm 6 mps 754 mmHg 80%
    19:00 +22°C° 0 mm 5 mps 754 mmHg 87%
    20:00 +21°C° 0.1 mm 5 mps 754 mmHg 89%
    21:00 +21°C° 0.1 mm 5 mps 755 mmHg 91%
    22:00 +20°C° 0.1 mm 5 mps 755 mmHg 93%
    23:00 +20°C° 0 mm 5 mps 754 mmHg 94%

    1 May, Monday

    Time Temperature Precipitation Wind Pressure Humidity
    00:00 +19°C° 0 mm 4 mps 754 mmHg 94%
    01:00 +18°C° 0 mm 4 mps 754 mmHg 95%
    02:00 +18°C° 0 mm 4 mps 754 mmHg 95%
    03:00 +18°C° 0 mm 4 mps 754 mmHg 95%
    04:00 +18°C° 0 mm 4 mps 754 mmHg 96%
    05:00 +18°C° 0 mm 4 mps 754 mmHg 96%
    06:00 +18°C° 0 mm 4 mps 754 mmHg 96%
    07:00 +18°C° 0 mm 4 mps 754 mmHg 96%
    08:00 +21°C° 0 mm 4 mps 754 mmHg 86%
    09:00 +23°C° 0 mm 4 mps 754 mmHg 76%
    10:00 +27°C° 0 mm 4 mps 754 mmHg 66%
    11:00 +28°C° 0.2 mm 4 mps 754 mmHg 63%
    12:00 +29°C° 0.2 mm 5 mps 753 mmHg 60%
    13:00 +30°C° 0.2 mm 5 mps 752 mmHg 57%
    14:00 +29°C° 0.5 mm 5 mps 752 mmHg 61%
    15:00 +28°C° 0.5 mm 5 mps 752 mmHg 65%
    16:00 +27°C° 0.5 mm 5 mps 752 mmHg 69%
    17:00 +26°C° 0.6 mm 4 mps 752 mmHg 77%
    18:00 +23°C° 0.6 mm 4 mps 753 mmHg 85%
    19:00 +22°C° 0.6 mm 4 mps 753 mmHg 92%
    20:00 +22°C° 0.5 mm 4 mps 754 mmHg 93%
    21:00 +22°C° 0.5 mm 4 mps 754 mmHg 93%
    22:00 +21°C° 0.5 mm 3 mps 754 mmHg 94%
    23:00 +21°C° 0.5 mm 3 mps 754 mmHg 95%
    Show more